Location: Borea
(45.6167°N, 23.0167°E)
Time: 10:43:05
(UTC+00:00)

COSMO-SKYMED 1 - Pass Details

Date: 03 February 2023
Orbit: 621 x 623 km, 97.9° (Epoch: 20 March)

Event Time Altitude Azimuth Distance (km) Brightness Sun altitude
Rises 17:06:08 0° 7° (N) 2,917 5.9 -15.9°
Reaches altitude 10° 17:08:23 10° 2° (N) 2,005 5.1 -16.3°
Maximum altitude 17:12:35 48° 289° (WNW) 818 3.6 -17.0°
Drops below altitude 10° 17:16:44 10° 215° (SW) 1,989 5.7 -17.7°
Sets 17:18:58 0° 210° (SSW) 2,890 6.5 -18.1°
